Fort Rucker / Ozark, AL

5:25 PM CST on February 21, 2018 (GMT -0600)
Fort Rucker / Ozark

Weather History for KHEY - April, 2013

Change the Weather History Date:

Monday, April 29, 2013

  Actual Average (KOZR) Record (KOZR)
Temperature  
Mean Temperature 70 °F -  
Max Temperature 78 °F 76 °F 89 °F (2017)
Min Temperature 62 °F 55 °F 50 °F (2008)
Cooling Degree Days 5    
Growing Degree Days 20 (Base 50)    
Moisture  
Dew Point 65 °F    
Average Humidity 88    
Maximum Humidity 100    
Minimum Humidity 62    
Precipitation  
Precipitation 0.44 in - - ()
Sea Level Pressure  
Sea Level Pressure 29.80 in    
Wind  
Wind Speed 3 mph (NE)    
Max Wind Speed 9 mph    
Max Gust Speed -    
Visibility 8 miles    
Events Rain , Thunderstorm    
Averages and records for this station are not official NWS values.
T = Trace of Precipitation, MM = Missing Value Source: NWS Daily Summary

Daily Weather History Graph

Daily Weather History Graph

Search for Another Location

Airport or City:

Trip Planner

Search our weather history database for the weather conditions in past years. The results will help you decide how hot, cold, wet, or windy it might be!

Date:

Astronomy

Apr. 29, 2013 Rise Set
Actual Time 5:59 AM CDT 7:20 PM CDT
Civil Twilight 5:33 AM CDT 7:46 PM CDT
Nautical Twilight 5:03 AM CDT 8:17 PM CDT
Astronomical Twilight 4:31 AM CDT 8:49 PM CDT
Moon 11:39 PM CDT (4/29) 9:25 AM CDT (4/29)
Length of Visible Light 14h 12m
Length of Day
13h 21m
Waning Gibbous, 80% of the Moon is Illuminated
Apr 29
Waning Gibbous
May 2
Last Quarter
May 9
New
May 17
First Quarter
May 24
Full

Hourly Weather History & Observations

Time (CDT) Temp. Dew Point Humidity Pressure Visibility Wind Dir Wind Speed Gust Speed Precip Events Conditions
12:53 AM 64.9 °F 63.0 °F 93% 29.67 in 10.0 mi Calm Calm - N/A   Mostly Cloudy
1:53 AM 64.9 °F 64.0 °F 97% 29.66 in 4.0 mi SE 3.5 mph - 0.04 in Rain Rain
2:53 AM 64.9 °F 64.0 °F 97% 29.64 in 4.0 mi ESE 8.1 mph - 0.06 in Rain Rain
3:53 AM 64.9 °F 64.0 °F 97% 29.63 in 10.0 mi East 8.1 mph - 0.05 in Rain Light Rain
4:53 AM 64.9 °F 63.0 °F 93% 29.63 in 10.0 mi SE 4.6 mph - 0.01 in   Overcast
5:01 AM 64.4 °F 64.4 °F 100% 29.97 in 10.0 mi ENE 3.5 mph - N/A   Overcast
5:53 AM 64.9 °F 64.0 °F 97% 29.65 in 7.0 mi Calm Calm - 0.00 in   Mostly Cloudy
6:53 AM 64.9 °F 64.0 °F 97% 29.65 in 7.0 mi East 3.5 mph - N/A   Overcast
7:53 AM 66.9 °F 64.9 °F 93% 29.67 in 7.0 mi Calm Calm - N/A   Overcast
8:17 AM 66.2 °F 66.2 °F 100% 30.01 in 7.0 mi Calm Calm - N/A   Overcast
8:35 AM 66.2 °F 66.2 °F 100% 30.01 in 7.0 mi NW 5.8 mph - N/A   Overcast
8:53 AM 66.9 °F 66.0 °F 97% 29.68 in 7.0 mi NW 4.6 mph - N/A   Overcast
9:08 AM 68.0 °F 66.2 °F 94% 30.01 in 8.0 mi North 3.5 mph - N/A   Overcast
9:16 AM 68.0 °F 64.4 °F 88% 30.01 in 7.0 mi North 4.6 mph - N/A   Overcast
9:24 AM 68.0 °F 64.4 °F 88% 30.01 in 7.0 mi North 3.5 mph - N/A   Overcast
9:53 AM 68.0 °F 64.9 °F 90% 29.69 in 9.0 mi NNW 3.5 mph - N/A   Overcast
10:53 AM 70.0 °F 64.9 °F 84% 29.70 in 10.0 mi Calm Calm - N/A   Overcast
11:08 AM 71.6 °F 66.2 °F 83% 30.03 in 10.0 mi NNW 3.5 mph - N/A   Overcast
11:34 AM 71.6 °F 66.2 °F 83% 30.02 in 10.0 mi Calm Calm - N/A   Overcast
11:49 AM 71.6 °F 66.2 °F 83% 30.02 in 10.0 mi Calm Calm - N/A   Overcast
11:53 AM 72.0 °F 66.0 °F 81% 29.68 in 10.0 mi Calm Calm - N/A   Overcast
12:18 PM 73.4 °F 66.2 °F 78% 30.00 in 10.0 mi East 4.6 mph - N/A   Overcast
12:43 PM 73.4 °F 64.4 °F 73% 29.99 in 10.0 mi Calm Calm - N/A   Overcast
12:53 PM 73.0 °F 66.0 °F 79% 29.66 in 10.0 mi NNW 3.5 mph - N/A Thunderstorm Thunderstorm
1:23 PM 71.6 °F 66.2 °F 83% 29.99 in 6.0 mi NNW 6.9 mph - 0.01 in Rain Rain
1:27 PM 69.8 °F 66.2 °F 88% 29.98 in 1.5 mi North 5.8 mph - 0.10 in Rain Heavy Rain
1:36 PM 68.0 °F 66.2 °F 94% 29.98 in 0.8 mi ENE 4.6 mph - 0.26 in Rain Heavy Rain
1:41 PM 69.8 °F 66.2 °F 88% 29.98 in 2.0 mi NE 4.6 mph - 0.27 in Rain Rain
1:49 PM 69.8 °F 66.2 °F 88% 29.97 in 8.0 mi Variable 4.6 mph - 0.27 in Rain Light Rain
1:53 PM 71.1 °F 66.9 °F 87% 29.64 in 10.0 mi North 3.5 mph - 0.27 in Rain Light Rain
2:32 PM 71.6 °F 68.0 °F 88% 29.96 in 10.0 mi SE 5.8 mph - N/A   Scattered Clouds
2:53 PM 73.9 °F 66.9 °F 79% 29.62 in 10.0 mi Calm Calm - N/A   Partly Cloudy
3:53 PM 78.1 °F 64.0 °F 62% 29.60 in 10.0 mi Calm Calm - N/A   Scattered Clouds
4:53 PM 77.0 °F 64.0 °F 64% 29.60 in 10.0 mi South 5.8 mph - N/A   Clear
5:37 PM 69.8 °F 62.6 °F 78% 29.94 in 10.0 mi Variable 3.5 mph - N/A   Overcast
5:41 PM 69.8 °F 62.6 °F 78% 29.95 in 10.0 mi SW 6.9 mph - N/A Thunderstorm Thunderstorm
5:53 PM 70.0 °F 62.1 °F 76% 29.61 in 10.0 mi Variable 5.8 mph - 0.00 in Rain , Thunderstorm Light Thunderstorms and Rain
6:03 PM 71.6 °F 62.6 °F 73% 29.93 in 10.0 mi Calm Calm - 0.00 in   Mostly Cloudy
6:53 PM 70.0 °F 63.0 °F 78% 29.62 in 10.0 mi ENE 9.2 mph - 0.00 in   Scattered Clouds
7:53 PM 68.0 °F 66.0 °F 93% 29.63 in 10.0 mi South 4.6 mph - N/A   Mostly Cloudy
8:53 PM 66.9 °F 64.9 °F 93% 29.62 in 10.0 mi Calm Calm - N/A   Clear
9:53 PM 64.9 °F 64.0 °F 97% 29.64 in 7.0 mi Calm Calm - N/A   Clear
10:53 PM 64.0 °F 63.0 °F 96% 29.63 in 9.0 mi Calm Calm - N/A   Clear
11:43 PM 62.6 °F 62.6 °F 100% 29.96 in 4.0 mi Calm Calm - 0.01 in   Scattered Clouds
11:53 PM 63.0 °F 62.1 °F 97% 29.63 in 4.0 mi ENE 3.5 mph - 0.01 in   Mostly Cloudy